Home   Weather   Yorkton   Past weeks

Flag for Canada Past Weather in Yorkton, Saskatchewan, Canada — Yesterday and Last 2 Weeks

Now
14 °F

Clear.


Feels Like: 6 °F
Forecast: 16 / 30 °F
Wind: 5 mph from Southwest

Location: Yorkton

Current Time: Jan 16, 2017 at 5:23:50 am

Latest Report: Jan 16, 2017 at 5:00 am


Visibility: 9 mi

Pressure: 30.07 "Hg (28.16 "Hg at 505m altitude)

Humidity: 100%

Dew Point: 14 °F

Location of YorktonLocation

Past Weather in Yorkton — Graph

°F

Yorkton Temperature Yesterday

Maximum temperature yesterday: 28 °F (at 2:00 pm)
Minimum temperature yesterday: 14 °F (at 9:00 am)
Average temperature yesterday: 21 °F

High & Low Weather Summary for the Past Weeks

 TemperatureHumidityPressure
High28 °F (Jan 15, 2:00 pm)92% (Jan 1, 8:00 am)30.69 "Hg (Jan 1, 8:00 am)
Low-26 °F (Jan 11, 9:00 am)62% (Jan 12, 10:00 am)29.48 "Hg (Jan 11, 11:21 pm)
Average-4 °F77%30.17 "Hg
* Reported Jan 1 4:00 am — Jan 16 4:00 am, Yorkton, Weather by CustomWeather, © 2017

Note: Actual official high and low records may vary slightly from our data, if they occured in-between our weather recording intervals... More about our weather records

Advertising

Yorkton Weather History for the Previous 24 Hours

Scroll right to see more
 ConditionsComfort  
Time TempWeatherWind HumidityBarometerVisibility
4:00 am
Mon, Jan 16
14 °FClear.6 mph92%30.07 "Hg9 mi
3:00 am16 °FClear.6 mph86%30.06 "Hg9 mi
2:00 am18 °FPartly cloudy.5 mph86%30.03 "Hg9 mi
1:00 am18 °FClear.8 mph86%30.04 "Hg9 mi
12:00 am18 °FOvercast.3 mph86%30.03 "Hg9 mi
11:00 pm
Sun, Jan 15
19 °FPassing clouds.6 mph79%30.00 "Hg9 mi
10:00 pm19 °FPassing clouds.8 mph79%29.99 "Hg9 mi
9:00 pm23 °FPassing clouds.10 mph74%29.99 "Hg9 mi
8:00 pm23 °FPassing clouds.9 mph74%29.97 "Hg9 mi
7:00 pm25 °FPassing clouds.9 mph74%29.93 "Hg9 mi
6:00 pm27 °FPassing clouds.9 mph74%29.91 "Hg9 mi
5:00 pm28 °FSunny.8 mph69%29.90 "Hg9 mi
4:00 pm28 °FSunny.12 mph74%29.91 "Hg9 mi
3:00 pm28 °FSunny.7 mph69%29.90 "Hg9 mi
2:00 pm28 °FSunny.5 mph64%29.90 "Hg9 mi
1:00 pm25 °FSunny.14 mph69%29.92 "Hg9 mi
12:00 pm23 °FSunny.16 mph68%29.94 "Hg9 mi
11:00 am23 °FSunny.9 mph63%29.96 "Hg9 mi
10:00 am18 °FSunny.9 mph73%29.97 "Hg9 mi
9:00 am14 °FSunny.6 mph79%29.98 "Hg9 mi
8:00 am16 °FPassing clouds.5 mph73%29.98 "Hg9 mi
7:00 am21 °FClear.8 mph63%29.98 "Hg9 mi
6:00 am19 °FPassing clouds.9 mph68%29.99 "Hg9 mi
5:00 am19 °FPassing clouds.13 mph68%29.99 "Hg9 mi
Weather by CustomWeather, © 2017

See weather overviewHow to use our weather pages